Year,Month,Day,Hour,Minute,Value (Times are PST for temperature in C)
2015,06,29,00,00,22.20
2015,06,29,00,01,22.10
2015,06,29,00,02,22.10
2015,06,29,00,03,22.00
2015,06,29,00,04,22.00
2015,06,29,00,05,21.90
2015,06,29,00,06,21.90
2015,06,29,00,07,21.80
2015,06,29,00,08,21.80
2015,06,29,00,09,21.80
2015,06,29,00,10,21.80
2015,06,29,00,11,21.70
2015,06,29,00,12,21.70
2015,06,29,00,13,21.70
2015,06,29,00,14,21.60
2015,06,29,00,15,21.60
2015,06,29,00,16,21.50
2015,06,29,00,17,21.50
2015,06,29,00,18,21.40
2015,06,29,00,19,21.40
2015,06,29,00,20,21.40
2015,06,29,00,21,21.30
2015,06,29,00,22,21.30
2015,06,29,00,23,21.30
2015,06,29,00,24,21.20
2015,06,29,00,25,21.20
2015,06,29,00,26,21.20
2015,06,29,00,27,21.20
2015,06,29,00,28,21.10
2015,06,29,00,29,21.10
2015,06,29,00,30,21.10
2015,06,29,00,31,21.10
2015,06,29,00,32,21.00
2015,06,29,00,33,21.00
2015,06,29,00,34,20.90
2015,06,29,00,35,20.90
2015,06,29,00,36,20.90
2015,06,29,00,37,20.90
2015,06,29,00,38,20.80
2015,06,29,00,39,20.80
2015,06,29,00,40,20.80
2015,06,29,00,41,20.70
2015,06,29,00,42,20.70
2015,06,29,00,43,20.60
2015,06,29,00,44,20.60
2015,06,29,00,45,20.60
2015,06,29,00,46,20.50
2015,06,29,00,47,20.50
2015,06,29,00,48,20.40
2015,06,29,00,49,20.40
2015,06,29,00,50,20.40
2015,06,29,00,51,20.30
2015,06,29,00,52,20.30
2015,06,29,00,53,20.30
2015,06,29,00,54,20.20
2015,06,29,00,55,20.20
2015,06,29,00,56,20.20
2015,06,29,00,57,20.10
2015,06,29,00,58,20.10
2015,06,29,00,59,20.10
2015,06,29,01,00,20.00
2015,06,29,01,01,20.00
2015,06,29,01,02,20.00
2015,06,29,01,03,19.90
2015,06,29,01,04,19.90
2015,06,29,01,05,19.90
2015,06,29,01,06,19.80
2015,06,29,01,07,19.80
2015,06,29,01,08,19.80
2015,06,29,01,09,19.80
2015,06,29,01,10,19.70
2015,06,29,01,11,19.70
2015,06,29,01,12,19.70
2015,06,29,01,13,19.70
2015,06,29,01,14,19.70
2015,06,29,01,15,19.60
2015,06,29,01,16,19.60
2015,06,29,01,17,19.60
2015,06,29,01,18,19.60
2015,06,29,01,19,19.50
2015,06,29,01,20,19.50
2015,06,29,01,21,19.40
2015,06,29,01,22,19.40
2015,06,29,01,23,19.40
2015,06,29,01,24,19.30
2015,06,29,01,25,19.30
2015,06,29,01,26,19.30
2015,06,29,01,27,19.20
2015,06,29,01,28,19.20
2015,06,29,01,29,19.10
2015,06,29,01,30,19.10
2015,06,29,01,31,19.10
2015,06,29,01,32,19.10
2015,06,29,01,33,19.00
2015,06,29,01,34,19.00
2015,06,29,01,35,18.90
2015,06,29,01,36,18.90
2015,06,29,01,37,18.90
2015,06,29,01,38,18.90
2015,06,29,01,39,18.90
2015,06,29,01,40,18.90
2015,06,29,01,41,18.90
2015,06,29,01,42,18.90
2015,06,29,01,43,18.90
2015,06,29,01,44,18.90
2015,06,29,01,45,18.90
2015,06,29,01,46,18.90
2015,06,29,01,47,18.80
2015,06,29,01,48,18.80
2015,06,29,01,49,18.80
2015,06,29,01,50,18.80
2015,06,29,01,51,18.80
2015,06,29,01,52,18.80
2015,06,29,01,53,18.70
2015,06,29,01,54,18.70
2015,06,29,01,55,18.70
2015,06,29,01,56,18.70
2015,06,29,01,57,18.70
2015,06,29,01,58,18.70
2015,06,29,01,59,18.70
2015,06,29,02,00,18.70
2015,06,29,02,01,18.60
2015,06,29,02,02,18.60
2015,06,29,02,03,18.60
2015,06,29,02,04,18.60
2015,06,29,02,05,18.60
2015,06,29,02,06,18.60
2015,06,29,02,07,18.60
2015,06,29,02,08,18.60
2015,06,29,02,09,18.60
2015,06,29,02,10,18.60
2015,06,29,02,11,18.50
2015,06,29,02,12,18.50
2015,06,29,02,13,18.50
2015,06,29,02,14,18.50
2015,06,29,02,15,18.50
2015,06,29,02,16,18.50
2015,06,29,02,17,18.50
2015,06,29,02,18,18.50
2015,06,29,02,19,18.50
2015,06,29,02,20,18.50
2015,06,29,02,21,18.40
2015,06,29,02,22,18.40
2015,06,29,02,23,18.40
2015,06,29,02,24,18.40
2015,06,29,02,25,18.40
2015,06,29,02,26,18.40
2015,06,29,02,27,18.40
2015,06,29,02,28,18.40
2015,06,29,02,29,18.40
2015,06,29,02,30,18.40
2015,06,29,02,31,18.40
2015,06,29,02,32,18.40
2015,06,29,02,33,18.40
2015,06,29,02,34,18.40
2015,06,29,02,35,18.40
2015,06,29,02,36,18.40
2015,06,29,02,37,18.40
2015,06,29,02,38,18.40
2015,06,29,02,39,18.40
2015,06,29,02,40,18.30
2015,06,29,02,41,18.30
2015,06,29,02,42,18.30
2015,06,29,02,43,18.30
2015,06,29,02,44,18.30
2015,06,29,02,45,18.30
2015,06,29,02,46,18.30
2015,06,29,02,47,18.30
2015,06,29,02,48,18.30
2015,06,29,02,49,18.30
2015,06,29,02,50,18.20
2015,06,29,02,51,18.20
2015,06,29,02,52,18.20
2015,06,29,02,53,18.20
2015,06,29,02,54,18.20
2015,06,29,02,55,18.20
2015,06,29,02,56,18.20
2015,06,29,02,57,18.20
2015,06,29,02,58,18.20
2015,06,29,02,59,18.20
2015,06,29,03,00,18.20
2015,06,29,03,01,18.30
2015,06,29,03,02,18.30
2015,06,29,03,03,18.40
2015,06,29,03,04,18.40
2015,06,29,03,05,18.50
2015,06,29,03,06,18.50
2015,06,29,03,07,18.60
2015,06,29,03,08,18.60
2015,06,29,03,09,18.70
2015,06,29,03,10,18.70
2015,06,29,03,11,18.70
2015,06,29,03,12,18.70
2015,06,29,03,13,18.80
2015,06,29,03,14,18.80
2015,06,29,03,15,18.80
2015,06,29,03,16,18.80
2015,06,29,03,17,18.80
2015,06,29,03,18,18.80
2015,06,29,03,19,18.80
2015,06,29,03,20,18.80
2015,06,29,03,21,18.80
2015,06,29,03,22,18.90
2015,06,29,03,23,18.90
2015,06,29,03,24,18.90
2015,06,29,03,25,18.90
2015,06,29,03,26,18.90
2015,06,29,03,27,18.90
2015,06,29,03,28,18.90
2015,06,29,03,29,18.90
2015,06,29,03,30,18.90
2015,06,29,03,31,18.90
2015,06,29,03,32,18.90
2015,06,29,03,33,18.90
2015,06,29,03,34,18.90
2015,06,29,03,35,18.90
2015,06,29,03,36,18.90
2015,06,29,03,37,18.80
2015,06,29,03,38,18.80
2015,06,29,03,39,18.80
2015,06,29,03,40,18.80
2015,06,29,03,41,18.80
2015,06,29,03,42,18.80
2015,06,29,03,43,18.80
2015,06,29,03,44,18.70
2015,06,29,03,45,18.70
2015,06,29,03,46,18.70
2015,06,29,03,47,18.70
2015,06,29,03,48,18.70
2015,06,29,03,49,18.60
2015,06,29,03,50,18.60
2015,06,29,03,51,18.60
2015,06,29,03,52,18.60
2015,06,29,03,53,18.60
2015,06,29,03,54,18.60
2015,06,29,03,55,18.50
2015,06,29,03,56,18.50
2015,06,29,03,57,18.50
2015,06,29,03,58,18.40
2015,06,29,03,59,18.40
2015,06,29,04,00,18.40
2015,06,29,04,01,18.40
2015,06,29,04,02,18.40
2015,06,29,04,03,18.40
2015,06,29,04,04,18.30
2015,06,29,04,05,18.30
2015,06,29,04,06,18.30
2015,06,29,04,07,18.30
2015,06,29,04,08,18.20
2015,06,29,04,09,18.20
2015,06,29,04,10,18.20
2015,06,29,04,11,18.20
2015,06,29,04,12,18.20
2015,06,29,04,13,18.20
2015,06,29,04,14,18.20
2015,06,29,04,15,18.10
2015,06,29,04,16,18.10
2015,06,29,04,17,18.10
2015,06,29,04,18,18.10
2015,06,29,04,19,18.10
2015,06,29,04,20,18.10
2015,06,29,04,21,18.10
2015,06,29,04,22,18.10
2015,06,29,04,23,18.10
2015,06,29,04,24,18.00
2015,06,29,04,25,18.00
2015,06,29,04,26,18.00
2015,06,29,04,27,17.90
2015,06,29,04,28,17.90
2015,06,29,04,29,17.90
2015,06,29,04,30,17.90
2015,06,29,04,31,17.90
2015,06,29,04,32,17.90
2015,06,29,04,33,17.90
2015,06,29,04,34,17.80
2015,06,29,04,35,17.80
2015,06,29,04,36,17.80
2015,06,29,04,37,17.80
2015,06,29,04,38,17.80
2015,06,29,04,39,17.80
2015,06,29,04,40,17.80
2015,06,29,04,41,17.80
2015,06,29,04,42,17.80
2015,06,29,04,43,17.70
2015,06,29,04,44,17.70
2015,06,29,04,45,17.70
2015,06,29,04,46,17.70
2015,06,29,04,47,17.70
2015,06,29,04,48,17.70
2015,06,29,04,49,17.70
2015,06,29,04,50,17.70
2015,06,29,04,51,17.70
2015,06,29,04,52,17.70
2015,06,29,04,53,17.70
2015,06,29,04,54,17.70
2015,06,29,04,55,17.70
2015,06,29,04,56,17.70
2015,06,29,04,57,17.70
2015,06,29,04,58,17.70
2015,06,29,04,59,17.60
2015,06,29,05,00,17.60
2015,06,29,05,01,17.60
2015,06,29,05,02,17.60
2015,06,29,05,03,17.60
2015,06,29,05,04,17.60
2015,06,29,05,05,17.60
2015,06,29,05,06,17.60
2015,06,29,05,07,17.60
2015,06,29,05,08,17.60
2015,06,29,05,09,17.60
2015,06,29,05,10,17.60
2015,06,29,05,11,17.60
2015,06,29,05,12,17.60
2015,06,29,05,13,17.60
2015,06,29,05,14,17.50
2015,06,29,05,15,17.50
2015,06,29,05,16,17.50
2015,06,29,05,17,17.50
2015,06,29,05,18,17.50
2015,06,29,05,19,17.50
2015,06,29,05,20,17.50
2015,06,29,05,21,17.50
2015,06,29,05,22,17.50
2015,06,29,05,23,17.50
2015,06,29,05,24,17.50
2015,06,29,05,25,17.40
2015,06,29,05,26,17.40
2015,06,29,05,27,17.40
2015,06,29,05,28,17.40
2015,06,29,05,29,17.40
2015,06,29,05,30,17.40
2015,06,29,05,31,17.40
2015,06,29,05,32,17.40
2015,06,29,05,33,17.40
2015,06,29,05,34,17.40
2015,06,29,05,35,17.40
2015,06,29,05,36,17.40
2015,06,29,05,37,17.40
2015,06,29,05,38,17.40
2015,06,29,05,39,17.40
2015,06,29,05,40,17.40
2015,06,29,05,41,17.40
2015,06,29,05,42,17.40
2015,06,29,05,43,17.40
2015,06,29,05,44,17.40
2015,06,29,05,45,17.40
2015,06,29,05,46,17.40
2015,06,29,05,47,17.40
2015,06,29,05,48,17.40
2015,06,29,05,49,17.40
2015,06,29,05,50,17.40
2015,06,29,05,51,17.40
2015,06,29,05,52,17.40
2015,06,29,05,53,17.40
2015,06,29,05,54,17.40
2015,06,29,05,55,17.40
2015,06,29,05,56,17.40
2015,06,29,05,57,17.40
2015,06,29,05,58,17.40
2015,06,29,05,59,17.40
2015,06,29,06,00,17.40
2015,06,29,06,01,17.40
2015,06,29,06,02,17.40
2015,06,29,06,03,17.40
2015,06,29,06,04,17.40
2015,06,29,06,05,17.50
2015,06,29,06,06,17.50
2015,06,29,06,07,17.50
2015,06,29,06,08,17.50
2015,06,29,06,09,17.50
2015,06,29,06,10,17.50
2015,06,29,06,11,17.50
2015,06,29,06,12,17.50
2015,06,29,06,13,17.50
2015,06,29,06,14,17.50
2015,06,29,06,15,17.50
2015,06,29,06,16,17.50
2015,06,29,06,17,17.50
2015,06,29,06,18,17.50
2015,06,29,06,19,17.50
2015,06,29,06,20,17.50
2015,06,29,06,21,17.50
2015,06,29,06,22,17.50
2015,06,29,06,23,17.50
2015,06,29,06,24,17.50
2015,06,29,06,25,17.50
2015,06,29,06,26,17.50
2015,06,29,06,27,17.40
2015,06,29,06,28,17.40
2015,06,29,06,29,17.40
2015,06,29,06,30,17.40
2015,06,29,06,31,17.40
2015,06,29,06,32,17.40
2015,06,29,06,33,17.40
2015,06,29,06,34,17.40
2015,06,29,06,35,17.40
2015,06,29,06,36,17.40
2015,06,29,06,37,17.40
2015,06,29,06,38,17.40
2015,06,29,06,39,17.50
2015,06,29,06,40,17.50
2015,06,29,06,41,17.50
2015,06,29,06,42,17.50
2015,06,29,06,43,17.60
2015,06,29,06,44,17.60
2015,06,29,06,45,17.60
2015,06,29,06,46,17.60
2015,06,29,06,47,17.70
2015,06,29,06,48,17.70
2015,06,29,06,49,17.70
2015,06,29,06,50,17.80
2015,06,29,06,51,17.80
2015,06,29,06,52,17.90
2015,06,29,06,53,17.90
2015,06,29,06,54,18.00
2015,06,29,06,55,18.10
2015,06,29,06,56,18.10
2015,06,29,06,57,18.10
2015,06,29,06,58,18.20
2015,06,29,06,59,18.20
2015,06,29,07,00,18.20
2015,06,29,07,01,18.30
2015,06,29,07,02,18.30
2015,06,29,07,03,18.30
2015,06,29,07,04,18.40
2015,06,29,07,05,18.40
2015,06,29,07,06,18.40
2015,06,29,07,07,18.50
2015,06,29,07,08,18.60
2015,06,29,07,09,18.60
2015,06,29,07,10,18.60
2015,06,29,07,11,18.60
2015,06,29,07,12,18.70
2015,06,29,07,13,18.70
2015,06,29,07,14,18.70
2015,06,29,07,15,18.80
2015,06,29,07,16,18.80
2015,06,29,07,17,18.80
2015,06,29,07,18,18.90
2015,06,29,07,19,18.90
2015,06,29,07,20,18.90
2015,06,29,07,21,18.90
2015,06,29,07,22,19.00
2015,06,29,07,23,19.00
2015,06,29,07,24,19.00
2015,06,29,07,25,19.10
2015,06,29,07,26,19.10
2015,06,29,07,27,19.10
2015,06,29,07,28,19.10
2015,06,29,07,29,19.10
2015,06,29,07,30,19.20
2015,06,29,07,31,19.20
2015,06,29,07,32,19.20
2015,06,29,07,33,19.20
2015,06,29,07,34,19.20
2015,06,29,07,35,19.30
2015,06,29,07,36,19.30
2015,06,29,07,37,19.30
2015,06,29,07,38,19.30
2015,06,29,07,39,19.40
2015,06,29,07,40,19.40
2015,06,29,07,41,19.40
2015,06,29,07,42,19.40
2015,06,29,07,43,19.50
2015,06,29,07,44,19.50
2015,06,29,07,45,19.60
2015,06,29,07,46,19.60
2015,06,29,07,47,19.60
2015,06,29,07,48,19.60
2015,06,29,07,49,19.70
2015,06,29,07,50,19.70
2015,06,29,07,51,19.70
2015,06,29,07,52,19.80
2015,06,29,07,53,19.80
2015,06,29,07,54,19.90
2015,06,29,07,55,19.90
2015,06,29,07,56,19.90
2015,06,29,07,57,20.00
2015,06,29,07,58,20.00
2015,06,29,07,59,20.10
2015,06,29,08,00,20.10
2015,06,29,08,01,20.20
2015,06,29,08,02,20.20
2015,06,29,08,03,20.30
2015,06,29,08,04,20.40
2015,06,29,08,05,20.40
2015,06,29,08,06,20.50
2015,06,29,08,07,20.60
2015,06,29,08,08,20.80
2015,06,29,08,09,20.80
2015,06,29,08,10,21.00
2015,06,29,08,11,21.10
2015,06,29,08,12,21.20
2015,06,29,08,13,21.30
2015,06,29,08,14,21.40
2015,06,29,08,15,21.50
2015,06,29,08,16,21.60
2015,06,29,08,17,21.80
2015,06,29,08,18,21.80
2015,06,29,08,19,22.00
2015,06,29,08,20,22.20
2015,06,29,08,21,22.30
2015,06,29,08,22,22.50
2015,06,29,08,23,22.70
2015,06,29,08,24,22.90
2015,06,29,08,25,23.00
2015,06,29,08,26,23.20
2015,06,29,08,27,23.30
2015,06,29,08,28,23.40
2015,06,29,08,29,23.60
2015,06,29,08,30,23.70
2015,06,29,08,31,23.90
2015,06,29,08,32,24.10
2015,06,29,08,33,24.30
2015,06,29,08,34,24.40
2015,06,29,08,35,24.60
2015,06,29,08,36,24.70
2015,06,29,08,37,24.90
2015,06,29,08,38,25.00
2015,06,29,08,39,25.10
2015,06,29,08,40,25.10
2015,06,29,08,41,25.20
2015,06,29,08,42,25.30
2015,06,29,08,43,25.40
2015,06,29,08,44,25.40
2015,06,29,08,45,25.50
2015,06,29,08,46,25.70
2015,06,29,08,47,25.70
2015,06,29,08,48,25.70
2015,06,29,08,49,25.70
2015,06,29,08,50,25.70
2015,06,29,08,51,25.70
2015,06,29,08,52,25.70
2015,06,29,08,53,25.70
2015,06,29,08,54,25.70
2015,06,29,08,55,25.70
2015,06,29,08,56,25.80
2015,06,29,08,57,25.80
2015,06,29,08,58,25.80
2015,06,29,08,59,25.80
2015,06,29,09,00,25.90
2015,06,29,09,01,25.90
2015,06,29,09,02,25.90
2015,06,29,09,03,25.90
2015,06,29,09,04,25.90
2015,06,29,09,05,25.90
2015,06,29,09,06,25.90
2015,06,29,09,07,25.90
2015,06,29,09,08,25.80
2015,06,29,09,09,25.70
2015,06,29,09,10,25.70
2015,06,29,09,11,25.70
2015,06,29,09,12,25.80
2015,06,29,09,13,25.90
2015,06,29,09,14,25.90
2015,06,29,09,15,26.00
2015,06,29,09,16,26.10
2015,06,29,09,17,26.20
2015,06,29,09,18,26.20
2015,06,29,09,19,26.30
2015,06,29,09,20,26.30
2015,06,29,09,21,26.40
2015,06,29,09,22,26.30
2015,06,29,09,23,26.30
2015,06,29,09,24,26.30
2015,06,29,09,25,26.30
2015,06,29,09,26,26.30
2015,06,29,09,27,26.30
2015,06,29,09,28,26.40
2015,06,29,09,29,26.40
2015,06,29,09,30,26.40
2015,06,29,09,31,26.40
2015,06,29,09,32,26.40
2015,06,29,09,33,26.50
2015,06,29,09,34,26.50
2015,06,29,09,35,26.60
2015,06,29,09,36,26.60
2015,06,29,09,37,26.70
2015,06,29,09,38,26.70
2015,06,29,09,39,26.60
2015,06,29,09,40,26.50
2015,06,29,09,41,26.50
2015,06,29,09,42,26.50
2015,06,29,09,43,26.60
2015,06,29,09,44,26.70
2015,06,29,09,45,26.80
2015,06,29,09,46,26.90
2015,06,29,09,47,26.90
2015,06,29,09,48,27.00
2015,06,29,09,49,27.10
2015,06,29,09,50,27.10
2015,06,29,09,51,27.10
2015,06,29,09,52,27.10
2015,06,29,09,53,27.10
2015,06,29,09,54,27.10
2015,06,29,09,55,27.10
2015,06,29,09,56,27.20
2015,06,29,09,57,27.30
2015,06,29,09,58,27.40
2015,06,29,09,59,27.40
2015,06,29,10,00,27.40
2015,06,29,10,01,27.30
2015,06,29,10,02,27.30
2015,06,29,10,03,27.30
2015,06,29,10,04,27.30
2015,06,29,10,05,27.30
2015,06,29,10,06,27.40
2015,06,29,10,07,27.50
2015,06,29,10,08,27.50
2015,06,29,10,09,27.60
2015,06,29,10,10,27.60
2015,06,29,10,11,27.60
2015,06,29,10,12,27.60
2015,06,29,10,13,27.60
2015,06,29,10,14,27.50
2015,06,29,10,15,27.40
2015,06,29,10,16,27.30
2015,06,29,10,17,27.20
2015,06,29,10,18,27.20
2015,06,29,10,19,27.20
2015,06,29,10,20,27.30
2015,06,29,10,21,27.40
2015,06,29,10,22,27.40
2015,06,29,10,23,27.40
2015,06,29,10,24,27.40
2015,06,29,10,25,27.50
2015,06,29,10,26,27.60
2015,06,29,10,27,27.60
2015,06,29,10,28,27.70
2015,06,29,10,29,27.60
2015,06,29,10,30,27.60
2015,06,29,10,31,27.60
2015,06,29,10,32,27.50
2015,06,29,10,33,27.50
2015,06,29,10,34,27.40
2015,06,29,10,35,27.40
2015,06,29,10,36,27.40
2015,06,29,10,37,27.40
2015,06,29,10,38,27.40
2015,06,29,10,39,27.40
2015,06,29,10,40,27.40
2015,06,29,10,41,27.30
2015,06,29,10,42,27.40
2015,06,29,10,43,27.40
2015,06,29,10,44,27.40
2015,06,29,10,45,27.40
2015,06,29,10,46,27.50
2015,06,29,10,47,27.60
2015,06,29,10,48,27.60
2015,06,29,10,49,27.60
2015,06,29,10,50,27.70
2015,06,29,10,51,27.80
2015,06,29,10,52,27.90
2015,06,29,10,53,27.90
2015,06,29,10,54,27.90
2015,06,29,10,55,27.90
2015,06,29,10,56,27.90
2015,06,29,10,57,27.80
2015,06,29,10,58,27.90
2015,06,29,10,59,28.00
2015,06,29,11,00,28.10
2015,06,29,11,01,28.20
2015,06,29,11,02,28.30
2015,06,29,11,03,28.40
2015,06,29,11,04,28.50
2015,06,29,11,05,28.60
2015,06,29,11,06,28.70
2015,06,29,11,07,28.70
2015,06,29,11,08,28.80
2015,06,29,11,09,28.70
2015,06,29,11,10,28.70
2015,06,29,11,11,28.70
2015,06,29,11,12,28.60
2015,06,29,11,13,28.50
2015,06,29,11,14,28.50
2015,06,29,11,15,28.50
2015,06,29,11,16,28.60
2015,06,29,11,17,28.60
2015,06,29,11,18,28.60
2015,06,29,11,19,28.60
2015,06,29,11,20,28.70
2015,06,29,11,21,28.70
2015,06,29,11,22,28.70
2015,06,29,11,23,28.80
2015,06,29,11,24,28.80
2015,06,29,11,25,28.80
2015,06,29,11,26,28.80
2015,06,29,11,27,28.80
2015,06,29,11,28,28.80
2015,06,29,11,29,28.90
2015,06,29,11,30,29.00
2015,06,29,11,31,29.10
2015,06,29,11,32,29.10
2015,06,29,11,33,29.10
2015,06,29,11,34,29.10
2015,06,29,11,35,29.10
2015,06,29,11,36,29.10
2015,06,29,11,37,29.00
2015,06,29,11,38,29.00
2015,06,29,11,39,28.90
2015,06,29,11,40,28.90
2015,06,29,11,41,28.80
2015,06,29,11,42,28.80
2015,06,29,11,43,28.70
2015,06,29,11,44,28.70
2015,06,29,11,45,28.60
2015,06,29,11,46,28.50
2015,06,29,11,47,28.50
2015,06,29,11,48,28.60
2015,06,29,11,49,28.60
2015,06,29,11,50,28.70
2015,06,29,11,51,28.70
2015,06,29,11,52,28.70
2015,06,29,11,53,28.70
2015,06,29,11,54,28.80
2015,06,29,11,55,28.80
2015,06,29,11,56,28.90
2015,06,29,11,57,28.90
2015,06,29,11,58,28.90
2015,06,29,11,59,28.90
2015,06,29,12,00,28.80
2015,06,29,12,01,28.70
2015,06,29,12,02,28.70
2015,06,29,12,03,28.70
2015,06,29,12,04,28.70
2015,06,29,12,05,28.80
2015,06,29,12,06,28.80
2015,06,29,12,07,28.70
2015,06,29,12,08,28.70
2015,06,29,12,09,28.70
2015,06,29,12,10,28.60
2015,06,29,12,11,28.50
2015,06,29,12,12,28.60
2015,06,29,12,13,28.60
2015,06,29,12,14,28.70
2015,06,29,12,15,28.80
2015,06,29,12,16,28.80
2015,06,29,12,17,28.80
2015,06,29,12,18,28.90
2015,06,29,12,19,29.00
2015,06,29,12,20,29.10
2015,06,29,12,21,29.20
2015,06,29,12,22,29.20
2015,06,29,12,23,29.10
2015,06,29,12,24,29.00
2015,06,29,12,25,28.90
2015,06,29,12,26,28.90
2015,06,29,12,27,29.00
2015,06,29,12,28,29.10
2015,06,29,12,29,29.20
2015,06,29,12,30,29.20
2015,06,29,12,31,29.20
2015,06,29,12,32,29.20
2015,06,29,12,33,29.30
2015,06,29,12,34,29.40
2015,06,29,12,35,29.50
2015,06,29,12,36,29.60
2015,06,29,12,37,29.70
2015,06,29,12,38,29.70
2015,06,29,12,39,29.60
2015,06,29,12,40,29.50
2015,06,29,12,41,29.40
2015,06,29,12,42,29.40
2015,06,29,12,43,29.30
2015,06,29,12,44,29.40
2015,06,29,12,45,29.50
2015,06,29,12,46,29.50
2015,06,29,12,47,29.40
2015,06,29,12,48,29.50
2015,06,29,12,49,29.70
2015,06,29,12,50,29.80
2015,06,29,12,51,29.80
2015,06,29,12,52,29.90
2015,06,29,12,53,30.00
2015,06,29,12,54,30.10
2015,06,29,12,55,30.20
2015,06,29,12,56,30.20
2015,06,29,12,57,30.10
2015,06,29,12,58,30.20
2015,06,29,12,59,30.30
2015,06,29,13,00,30.30
2015,06,29,13,01,30.40
2015,06,29,13,02,30.50
2015,06,29,13,03,30.50
2015,06,29,13,04,30.40
2015,06,29,13,05,30.50
2015,06,29,13,06,30.50
2015,06,29,13,07,30.60
2015,06,29,13,08,30.60
2015,06,29,13,09,30.50
2015,06,29,13,10,30.30
2015,06,29,13,11,30.20
2015,06,29,13,12,30.10
2015,06,29,13,13,30.10
2015,06,29,13,14,30.20
2015,06,29,13,15,30.30
2015,06,29,13,16,30.40
2015,06,29,13,17,30.50
2015,06,29,13,18,30.60
2015,06,29,13,19,30.60
2015,06,29,13,20,30.60
2015,06,29,13,21,30.60
2015,06,29,13,22,30.70
2015,06,29,13,23,30.60
2015,06,29,13,24,30.50
2015,06,29,13,25,30.40
2015,06,29,13,26,30.30
2015,06,29,13,27,30.30
2015,06,29,13,28,30.40
2015,06,29,13,29,30.30
2015,06,29,13,30,30.20
2015,06,29,13,31,30.20
2015,06,29,13,32,30.30
2015,06,29,13,33,30.40
2015,06,29,13,34,30.60
2015,06,29,13,35,30.80
2015,06,29,13,36,30.90
2015,06,29,13,37,31.10
2015,06,29,13,38,31.10
2015,06,29,13,39,31.20
2015,06,29,13,40,31.30
2015,06,29,13,41,31.30
2015,06,29,13,42,31.30
2015,06,29,13,43,31.30
2015,06,29,13,44,31.30
2015,06,29,13,45,31.30
2015,06,29,13,46,31.40
2015,06,29,13,47,31.50
2015,06,29,13,48,31.50
2015,06,29,13,49,31.60
2015,06,29,13,50,31.80
2015,06,29,13,51,31.90
2015,06,29,13,52,31.90
2015,06,29,13,53,32.00
2015,06,29,13,54,31.90
2015,06,29,13,55,31.90
2015,06,29,13,56,31.80
2015,06,29,13,57,31.80
2015,06,29,13,58,31.90
2015,06,29,13,59,32.00
2015,06,29,14,00,32.10
2015,06,29,14,01,32.10
2015,06,29,14,02,32.10
2015,06,29,14,03,32.20
2015,06,29,14,04,32.20
2015,06,29,14,05,32.20
2015,06,29,14,06,32.10
2015,06,29,14,07,32.10
2015,06,29,14,08,32.00
2015,06,29,14,09,31.90
2015,06,29,14,10,31.90
2015,06,29,14,11,32.00
2015,06,29,14,12,32.10
2015,06,29,14,13,32.00
2015,06,29,14,14,31.90
2015,06,29,14,15,31.80
2015,06,29,14,16,31.50
2015,06,29,14,17,31.30
2015,06,29,14,18,31.00
2015,06,29,14,19,30.60
2015,06,29,14,20,30.30
2015,06,29,14,21,30.00
2015,06,29,14,22,29.70
2015,06,29,14,23,29.40
2015,06,29,14,24,29.10
2015,06,29,14,25,29.00
2015,06,29,14,26,28.90
2015,06,29,14,27,28.90
2015,06,29,14,28,28.90
2015,06,29,14,29,28.90
2015,06,29,14,30,28.80
2015,06,29,14,31,28.80
2015,06,29,14,32,28.80
2015,06,29,14,33,28.90
2015,06,29,14,34,29.00
2015,06,29,14,35,29.10
2015,06,29,14,36,29.20
2015,06,29,14,37,29.40
2015,06,29,14,38,29.60
2015,06,29,14,39,29.70
2015,06,29,14,40,29.80
2015,06,29,14,41,29.80
2015,06,29,14,42,29.80
2015,06,29,14,43,29.90
2015,06,29,14,44,29.90
2015,06,29,14,45,30.00
2015,06,29,14,46,30.10
2015,06,29,14,47,30.10
2015,06,29,14,48,30.00
2015,06,29,14,49,30.00
2015,06,29,14,50,30.00
2015,06,29,14,51,30.10
2015,06,29,14,52,30.10
2015,06,29,14,53,30.20
2015,06,29,14,54,30.20
2015,06,29,14,55,30.40
2015,06,29,14,56,30.40
2015,06,29,14,57,30.40
2015,06,29,14,58,30.30
2015,06,29,14,59,30.30
2015,06,29,15,00,30.20
2015,06,29,15,01,30.20
2015,06,29,15,02,30.20
2015,06,29,15,03,30.10
2015,06,29,15,04,30.10
2015,06,29,15,05,30.00
2015,06,29,15,06,30.00
2015,06,29,15,07,30.10
2015,06,29,15,08,30.20
2015,06,29,15,09,30.30
2015,06,29,15,10,30.40
2015,06,29,15,11,30.50
2015,06,29,15,12,30.70
2015,06,29,15,13,30.80
2015,06,29,15,14,31.00
2015,06,29,15,15,31.10
2015,06,29,15,16,31.20
2015,06,29,15,17,31.20
2015,06,29,15,18,31.10
2015,06,29,15,19,31.00
2015,06,29,15,20,31.00
2015,06,29,15,21,30.80
2015,06,29,15,22,30.80
2015,06,29,15,23,30.80
2015,06,29,15,24,30.90
2015,06,29,15,25,31.00
2015,06,29,15,26,31.10
2015,06,29,15,27,31.30
2015,06,29,15,28,31.40
2015,06,29,15,29,31.60
2015,06,29,15,30,31.70
2015,06,29,15,31,31.90
2015,06,29,15,32,32.10
2015,06,29,15,33,32.20
2015,06,29,15,34,32.30
2015,06,29,15,35,32.30
2015,06,29,15,36,32.20
2015,06,29,15,37,32.20
2015,06,29,15,38,32.10
2015,06,29,15,39,31.90
2015,06,29,15,40,31.70
2015,06,29,15,41,31.50
2015,06,29,15,42,31.30
2015,06,29,15,43,31.20
2015,06,29,15,44,31.00
2015,06,29,15,45,30.90
2015,06,29,15,46,30.70
2015,06,29,15,47,30.70
2015,06,29,15,48,30.70
2015,06,29,15,49,30.80
2015,06,29,15,50,30.90
2015,06,29,15,51,30.90
2015,06,29,15,52,31.00
2015,06,29,15,53,31.00
2015,06,29,15,54,30.90
2015,06,29,15,55,30.90
2015,06,29,15,56,30.80
2015,06,29,15,57,30.80
2015,06,29,15,58,30.70
2015,06,29,15,59,30.50
2015,06,29,16,00,30.40
2015,06,29,16,01,30.30
2015,06,29,16,02,30.20
2015,06,29,16,03,30.10
2015,06,29,16,04,30.10
2015,06,29,16,05,30.10
2015,06,29,16,06,30.10
2015,06,29,16,07,30.20
2015,06,29,16,08,30.20
2015,06,29,16,09,30.30
2015,06,29,16,10,30.30
2015,06,29,16,11,30.40
2015,06,29,16,12,30.40
2015,06,29,16,13,30.40
2015,06,29,16,14,30.40
2015,06,29,16,15,30.30
2015,06,29,16,16,30.20
2015,06,29,16,17,30.00
2015,06,29,16,18,29.90
2015,06,29,16,19,29.80
2015,06,29,16,20,29.70
2015,06,29,16,21,29.60
2015,06,29,16,22,29.60
2015,06,29,16,23,29.50
2015,06,29,16,24,29.40
2015,06,29,16,25,29.30
2015,06,29,16,26,29.30
2015,06,29,16,27,29.20
2015,06,29,16,28,29.10
2015,06,29,16,29,29.10
2015,06,29,16,30,29.10
2015,06,29,16,31,29.10
2015,06,29,16,32,29.00
2015,06,29,16,33,28.90
2015,06,29,16,34,28.80
2015,06,29,16,35,28.80
2015,06,29,16,36,28.70
2015,06,29,16,37,28.70
2015,06,29,16,38,28.70
2015,06,29,16,39,28.70
2015,06,29,16,40,28.80
2015,06,29,16,41,28.80
2015,06,29,16,42,28.80
2015,06,29,16,43,28.80
2015,06,29,16,44,28.90
2015,06,29,16,45,29.00
2015,06,29,16,46,29.00
2015,06,29,16,47,29.10
2015,06,29,16,48,29.20
2015,06,29,16,49,29.20
2015,06,29,16,50,29.20
2015,06,29,16,51,29.20
2015,06,29,16,52,29.20
2015,06,29,16,53,29.20
2015,06,29,16,54,29.20
2015,06,29,16,55,29.20
2015,06,29,16,56,29.20
2015,06,29,16,57,29.20
2015,06,29,16,58,29.20
2015,06,29,16,59,29.20
2015,06,29,17,00,29.10
2015,06,29,17,01,29.10
2015,06,29,17,02,29.10
2015,06,29,17,03,29.10
2015,06,29,17,04,29.10
2015,06,29,17,05,29.20
2015,06,29,17,06,29.20
2015,06,29,17,07,29.20
2015,06,29,17,08,29.30
2015,06,29,17,09,29.30
2015,06,29,17,10,29.30
2015,06,29,17,11,29.40
2015,06,29,17,12,29.40
2015,06,29,17,13,29.40
2015,06,29,17,14,29.40
2015,06,29,17,15,29.40
2015,06,29,17,16,29.50
2015,06,29,17,17,29.60
2015,06,29,17,18,29.60
2015,06,29,17,19,29.70